Date String (YYYY-MM-DD hh:mm:ss) UTC,Instrument flags,absolute air pressure of the measurement (hPa),sample flow rate (lpm),inlet stack bypass flow (lpm),air temperature of the measurement (°C),ambient temperature measured by the external sensor (°C),aerosol sample conditioner tube jacket temperature (°C),OPC LED temperature (°C),internal box temperature (°C),relative humidity of the measurement (%),span deviation,mass concentration of particles derived from Lorenz-Mie calculation of OPC scattering (μg/m³),mass concentration of particles derived from Lorenz-Mie calculation of OPC scattering (μg/m³),mass concentration of particles derived from Lorenz-Mie calculation of OPC scattering (μg/m³)
DateTimeUTC,F1_M11,P_M11,Q1_M11,Q2_M11,T1_M11,T2_M11,T3_M11,T4_M11,T5_M11,U1_M11,ZSPAN_M11,X2_M11,X0_M11,X1_M11
2024-02-14 03:00:00,SystemResetWarning,0825.3,5.00,000.00,023.7,023.0,000.0,032.4,025.5,11.7,0000.0,0005.63,0017.32,0004.75
2024-02-14 03:01:00,SystemResetWarning,0825.2,5.01,000.00,023.7,023.0,000.0,032.4,025.5,11.7,0000.0,0005.51,0016.97,0004.69
2024-02-14 03:02:00,SystemResetWarning,0825.3,5.00,000.00,023.7,023.0,000.0,032.4,025.5,11.6,0000.0,0005.42,0016.36,0004.65
2024-02-14 03:03:00,SystemResetWarning,0825.2,5.00,000.00,023.7,023.0,000.0,032.3,025.5,11.5,0000.0,0005.32,0015.67,0004.61
2024-02-14 03:04:00,SystemResetWarning,0825.3,5.01,000.00,023.7,022.9,000.0,032.3,025.5,11.4,0000.0,0005.25,0015.23,0004.58
2024-02-14 03:05:00,SystemResetWarning,0825.3,5.00,000.00,023.7,022.9,000.0,032.3,025.5,11.3,0000.0,0005.20,0015.38,0004.55
2024-02-14 03:06:00,SystemResetWarning,0825.2,5.00,000.00,023.7,022.9,000.0,032.3,025.5,11.2,0000.0,0005.13,0013.59,0004.51
2024-02-14 03:07:00,SystemResetWarning,0825.3,4.99,000.00,023.7,022.9,000.0,032.3,025.5,11.1,0000.0,0005.10,0012.99,0004.49
2024-02-14 03:08:00,SystemResetWarning,0825.2,5.00,000.00,023.6,022.9,000.0,032.3,025.5,11.0,0000.0,0005.10,0012.92,0004.48
2024-02-14 03:09:00,SystemResetWarning,0825.3,5.00,000.00,023.6,022.9,000.0,032.3,025.5,10.9,0000.0,0005.10,0013.86,0004.48
2024-02-14 03:10:00,SystemResetWarning,0825.3,5.00,000.00,023.6,022.9,000.0,032.3,025.5,11.0,0000.0,0005.17,0013.49,0004.49
2024-02-14 03:11:00,SystemResetWarning,0825.3,4.99,000.00,023.6,022.8,000.0,032.3,025.5,10.9,0000.0,0005.16,0012.88,0004.49
2024-02-14 03:12:00,SystemResetWarning,0825.2,5.00,000.00,023.6,022.8,000.0,032.2,025.5,10.8,0000.0,0005.17,0012.83,0004.49
2024-02-14 03:13:00,SystemResetWarning,0825.2,5.00,000.00,023.6,022.8,000.0,032.2,025.5,10.8,0000.0,0005.10,0012.68,0004.42
2024-02-14 03:14:00,SystemResetWarning,0825.3,5.01,000.00,023.6,022.8,000.0,032.2,025.4,10.7,0000.0,0004.99,0012.34,0004.34
2024-02-14 03:15:00,SystemResetWarning,0825.3,5.00,000.00,023.5,022.8,000.0,032.2,025.4,10.6,0000.0,0004.92,0012.77,0004.26
2024-02-14 03:16:00,SystemResetWarning,0825.3,5.01,000.00,023.5,022.8,000.0,032.2,025.4,10.6,0000.0,0004.81,0011.44,0004.16
2024-02-14 03:17:00,SystemResetWarning,0825.3,5.00,000.00,023.5,022.8,000.0,032.2,025.4,10.6,0000.0,0004.72,0010.98,0004.06
2024-02-14 03:18:00,SystemResetWarning,0825.3,5.00,000.00,023.5,022.8,000.0,032.2,025.3,10.7,0000.0,0004.62,0010.94,0003.96
2024-02-14 03:19:00,SystemResetWarning,0825.2,4.99,000.00,023.5,022.7,000.0,032.1,025.3,10.8,0000.0,0004.51,0011.09,0003.83
2024-02-14 03:20:00,SystemResetWarning,0825.3,5.00,000.00,023.5,022.7,000.0,032.1,025.3,10.7,0000.0,0004.40,0010.37,0003.72
2024-02-14 03:21:00,SystemResetWarning,0825.2,5.00,000.00,023.5,022.7,000.0,032.1,025.3,10.6,0000.0,0004.26,0010.82,0003.61
2024-02-14 03:22:00,SystemResetWarning,0825.2,5.00,000.00,023.5,022.7,000.0,032.1,025.3,10.6,0000.0,0004.18,0011.14,0003.52
2024-02-14 03:23:00,SystemResetWarning,0825.3,5.00,000.00,023.4,022.7,000.0,032.1,025.3,10.6,0000.0,0004.14,0011.17,0003.45
2024-02-14 03:24:00,SystemResetWarning,0825.2,5.00,000.00,023.4,022.7,000.0,032.1,025.3,10.9,0000.0,0004.12,0011.25,0003.41
2024-02-14 03:25:00,SystemResetWarning,0825.3,5.00,000.00,023.4,022.7,000.0,032.1,025.3,10.7,0000.0,0004.11,0011.17,0003.37
2024-02-14 03:26:00,SystemResetWarning,0825.3,5.01,000.00,023.4,022.7,000.0,032.1,025.2,10.6,0000.0,0004.07,0010.62,0003.33
2024-02-14 03:27:00,SystemResetWarning,0825.2,5.00,000.00,023.4,022.7,000.0,032.1,025.2,10.4,0000.0,0004.01,0010.40,0003.29
2024-02-14 03:28:00,SystemResetWarning,0825.3,5.00,000.00,023.4,022.7,000.0,032.0,025.2,10.3,0000.0,0003.94,0010.75,0003.25
2024-02-14 03:29:00,SystemResetWarning,0825.2,5.00,000.00,023.4,022.6,000.0,032.0,025.2,10.5,0000.0,0003.92,0011.19,0003.22
2024-02-14 03:30:00,SystemResetWarning,0825.3,5.00,000.00,023.4,022.6,000.0,032.0,025.2,10.6,0000.0,0003.86,0011.18,0003.19
2024-02-14 03:31:00,SystemResetWarning,0825.3,5.00,000.00,023.4,022.6,000.0,032.0,025.2,10.4,0000.0,0003.82,0010.75,0003.16
2024-02-14 03:32:00,SystemResetWarning,0825.3,5.00,000.00,023.4,022.6,000.0,032.0,025.2,10.4,0000.0,0003.78,0009.74,0003.13
2024-02-14 03:33:00,SystemResetWarning,0825.3,5.00,000.00,023.3,022.6,000.0,032.0,025.2,10.7,0000.0,0003.75,0009.06,0003.09
2024-02-14 03:34:00,SystemResetWarning,0825.3,5.00,000.00,023.3,022.6,000.0,032.0,025.1,10.6,0000.0,0003.70,0008.95,0003.06
2024-02-14 03:35:00,SystemResetWarning,0825.3,5.00,000.00,023.3,022.6,000.0,032.0,025.2,10.6,0000.0,0003.68,0008.78,0003.03
2024-02-14 03:36:00,SystemResetWarning,0825.3,5.00,000.00,023.3,022.6,000.0,031.9,025.2,10.6,0000.0,0003.69,0009.37,0003.05
2024-02-14 03:37:00,SystemResetWarning,0825.2,5.00,000.00,023.3,022.6,000.0,031.9,025.1,10.4,0000.0,0003.70,0009.77,0003.09
2024-02-14 03:38:00,SystemResetWarning,0825.2,5.00,000.00,023.3,022.6,000.0,031.9,025.1,10.2,0000.0,0003.73,0009.76,0003.12
2024-02-14 03:39:00,SystemResetWarning,0825.2,5.00,000.00,023.3,022.5,000.0,031.9,025.1,10.2,0000.0,0003.78,0009.24,0003.16
2024-02-14 03:40:00,SystemResetWarning,0825.2,5.00,000.00,023.3,022.5,000.0,031.9,025.1,10.2,0000.0,0003.81,0008.85,0003.22
2024-02-14 03:41:00,SystemResetWarning,0825.3,5.00,000.00,023.3,022.5,000.0,031.9,025.1,10.3,0000.0,0003.86,0008.90,0003.28
2024-02-14 03:42:00,SystemResetWarning,0825.2,5.00,000.00,023.2,022.5,000.0,031.9,025.1,10.3,0000.0,0003.90,0009.25,0003.32
2024-02-14 03:43:00,SystemResetWarning,0825.2,5.00,000.00,023.2,022.5,000.0,031.9,025.1,10.6,0000.0,0003.96,0010.11,0003.39
2024-02-14 03:44:00,SystemResetWarning,0825.3,5.00,000.00,023.2,022.5,000.0,031.9,025.1,10.3,0000.0,0003.97,0010.69,0003.42
2024-02-14 03:45:00,SystemResetWarning,0825.3,5.00,000.00,023.2,022.5,000.0,031.9,025.1,10.3,0000.0,0003.96,0011.06,0003.42
2024-02-14 03:46:00,SystemResetWarning,0825.2,5.00,000.00,023.2,022.5,000.0,031.8,025.1,10.0,0000.0,0004.01,0011.71,0003.44
2024-02-14 03:47:00,SystemResetWarning,0825.2,5.00,000.00,023.2,022.5,000.0,031.8,025.1,09.9,0000.0,0004.03,0011.67,0003.44
2024-02-14 03:48:00,SystemResetWarning,0825.2,5.00,000.00,023.2,022.5,000.0,031.8,025.0,10.0,0000.0,0003.98,0011.14,0003.41
2024-02-14 03:49:00,SystemResetWarning,0825.3,5.01,000.00,023.2,022.5,000.0,031.8,025.0,10.3,0000.0,0003.95,0010.94,0003.40
2024-02-14 03:50:00,SystemResetWarning,0825.2,4.99,000.00,023.2,022.4,000.0,031.8,025.0,10.4,0000.0,0003.95,0010.85,0003.41
2024-02-14 03:51:00,SystemResetWarning,0825.2,5.00,000.00,023.2,022.4,000.0,031.8,025.0,10.2,0000.0,0003.94,0010.62,0003.40
2024-02-14 03:52:00,SystemResetWarning,0825.2,4.99,000.00,023.2,022.4,000.0,031.8,025.0,09.9,0000.0,0003.92,0010.34,0003.36
2024-02-14 03:53:00,SystemResetWarning,0825.2,5.00,000.00,023.1,022.4,000.0,031.8,025.0,10.0,0000.0,0003.87,0010.23,0003.31
2024-02-14 03:54:00,SystemResetWarning,0825.2,5.00,000.00,023.1,022.4,000.0,031.8,025.0,09.9,0000.0,0003.79,0009.34,0003.25
2024-02-14 03:55:00,SystemResetWarning,0825.2,5.00,000.00,023.1,022.4,000.0,031.8,025.0,10.1,0000.0,0003.75,0008.71,0003.23
2024-02-14 03:56:00,SystemResetWarning,0825.2,5.00,000.00,023.1,022.4,000.0,031.7,025.0,10.0,0000.0,0003.81,0008.42,0003.24
2024-02-14 03:57:00,SystemResetWarning,0825.2,5.01,000.00,023.1,022.4,000.0,031.7,025.0,10.0,0000.0,0003.81,0007.80,0003.27
2024-02-14 03:58:00,SystemResetWarning,0825.2,5.00,000.00,023.1,022.4,000.0,031.7,024.9,09.9,0000.0,0003.74,0007.09,0003.26
2024-02-14 03:59:00,SystemResetWarning,0825.2,5.01,000.00,023.1,022.4,000.0,031.7,024.9,09.7,0000.0,0003.72,0007.03,0003.23
